Terug naar catalogus

STARLINK-35599

ActiefCommunicatieVLEO
NORAD 66102·PAYLOAD·🇺🇸 United States

Gelanceerd Oct 19, 2025 vanaf Vandenberg Space Force Base

Loading…

Volgende Passages (komende 24 uur)

TLE

VersSource: CelesTrak SupGP

Epoch: Sep 15, 2026, 03:46 UTC

1 66102C 25236S   26258.15743056  .00008797  00000+0  25990-3 0  2583
2 66102  53.1589 300.3861 0001225  88.9725 186.4386 15.34387012    19

Volg STARLINK-35599 in realtime met AllMySat

Download on the App Store